Vigo, Spain

8:21 AM CET on December 12, 2017 (GMT +0100)
Vigo

Weather History for LEVX - October, 2012

Change the Weather History Date:

Saturday, October 27, 2012

  Actual Average Record
Temperature  
Mean Temperature 52 °F -  
Max Temperature 57 °F 57 °F 86 °F (2017)
Min Temperature 46 °F 45 °F 41 °F (2007)
Degree Days  
Heating Degree Days 14    
Growing Degree Days 2 (Base 50)    
Moisture  
Dew Point 48 °F    
Average Humidity 82    
Maximum Humidity 100    
Minimum Humidity 59    
Precipitation  
Precipitation 0.00 in 0.27 in - ()
Sea Level Pressure  
Sea Level Pressure 29.84 in    
Wind  
Wind Speed 7 mph ()    
Max Wind Speed 18 mph    
Max Gust Speed 33 mph    
Visibility 7.3 miles    
Events      
Averages and records for this station are not official NWS values.
T = Trace of Precipitation, MM = Missing Value Source: Averaged Metar Reports

Daily Weather History Graph

Daily Weather History Graph

Search for Another Location

Airport or City:

Trip Planner

Search our weather history database for the weather conditions in past years. The results will help you decide how hot, cold, wet, or windy it might be!

Date:

Astronomy

Oct. 27, 2012 Rise Set
Actual Time 9:01 AM CEST 7:34 PM CEST
Civil Twilight 8:32 AM CEST 8:03 PM CEST
Nautical Twilight 8:00 AM CEST 8:35 PM CEST
Astronomical Twilight 7:27 AM CEST 9:08 PM CEST
Moon 6:14 PM CEST (10/27) 6:41 AM CEST (10/27)
Length of Visible Light 11h 30m
Length of Day
10h 32m
Waxing Gibbous, 95% of the Moon is Illuminated
Oct 27
Waxing Gibbous
Oct 29
Full
Nov 7
Last Quarter
Nov 13
New
Nov 20
First Quarter

Hourly Weather History & Observations

Time (CEST) Temp. Windchill Dew Point Humidity Pressure Visibility Wind Dir Wind Speed Gust Speed Precip Events Conditions
12:00 AM 55.4 °F - 53.6 °F 94% 29.68 in - NNE 5.8 mph - N/A   Clear
1:00 AM 55.4 °F - 53.6 °F 94% 29.68 in - NNE 4.6 mph - N/A   Clear
1:30 AM 55.4 °F - 53.6 °F 94% 29.71 in 6.2 mi Calm Calm - N/A   Scattered Clouds
2:00 AM 51 °F - 51 °F 98% 29.73 in 12 mi Calm Calm - -   Mostly Cloudy
2:00 AM 53.6 °F - 53.6 °F 100% 29.71 in 6.2 mi Calm Calm - N/A   Mostly Cloudy
2:30 AM 55.4 °F - 53.6 °F 94% 29.71 in 6.2 mi North 5.8 mph - N/A   Mostly Cloudy
3:00 AM 55.4 °F - 53.6 °F 94% 29.71 in 6.2 mi NNE 4.6 mph - N/A   Mostly Cloudy
3:30 AM 55.4 °F - 53.6 °F 94% 29.71 in 6.2 mi NNE 5.8 mph - N/A   Mostly Cloudy
4:00 AM 55.4 °F - 53.6 °F 94% 29.71 in 6.2 mi NNE 6.9 mph - N/A   Mostly Cloudy
5:30 AM 53.6 °F - 53.6 °F 100% 29.74 in 6.2 mi Variable 2.3 mph - N/A   Scattered Clouds
6:30 AM 53.6 °F - 51.8 °F 94% 29.74 in 6.2 mi NNE 5.8 mph - N/A   Scattered Clouds
7:00 AM 51.8 °F - 51.8 °F 100% 29.77 in 6.2 mi Variable 1.2 mph - N/A   Scattered Clouds
7:30 AM 53.6 °F - 51.8 °F 94% 29.77 in 6.2 mi NE 3.5 mph - N/A   Scattered Clouds
8:00 AM 49 °F - 49 °F 100% 29.80 in 12 mi NNE 4.6 mph - -   Partly Cloudy
8:00 AM 53.6 °F - 51.8 °F 94% 29.77 in 6.2 mi NE 3.5 mph - N/A   Scattered Clouds
8:30 AM 53.6 °F - 51.8 °F 94% 29.80 in 6.2 mi NNE 4.6 mph - N/A   Scattered Clouds
9:00 AM 53.6 °F - 51.8 °F 94% 29.80 in 6.2 mi Variable 1.2 mph - N/A   Scattered Clouds
9:30 AM 51.8 °F - 51.8 °F 100% 29.80 in 6.2 mi Variable 1.2 mph - N/A   Scattered Clouds
10:00 AM 51.8 °F - 51.8 °F 100% 29.83 in 6.2 mi Variable 1.2 mph - N/A   Scattered Clouds
10:30 AM 55.4 °F - 53.6 °F 94% 29.83 in 6.2 mi Variable 1.2 mph - N/A   Scattered Clouds
11:00 AM 55.4 °F - 51.8 °F 88% 29.83 in 6.2 mi ENE 4.6 mph - N/A   Partly Cloudy
11:30 AM 57.2 °F - 51.8 °F 82% 29.86 in 6.2 mi ENE 6.9 mph - N/A   Partly Cloudy
12:00 PM 57.2 °F - 46.4 °F 67% 29.86 in 6.2 mi NE 15.0 mph 26.5 mph N/A   Partly Cloudy
12:30 PM 59.0 °F - 48.2 °F 67% 29.89 in 6.2 mi NE 12.7 mph 24.2 mph N/A   Partly Cloudy
1:00 PM 57.2 °F - 46.4 °F 67% 29.89 in 6.2 mi NE 13.8 mph 25.3 mph N/A   Partly Cloudy
2:00 PM 56 °F - 56 °F 100% 29.91 in 19 mi NE 15.0 mph - -   Partly Cloudy
2:00 PM 59.0 °F - 44.6 °F 59% 29.89 in 6.2 mi NE 15.0 mph 28.8 mph N/A   Partly Cloudy
2:30 PM 59.0 °F - 44.6 °F 59% 29.89 in 6.2 mi NE 13.8 mph 25.3 mph N/A   Partly Cloudy
3:00 PM 59.0 °F - 44.6 °F 59% 29.89 in 6.2 mi NE 18.4 mph 32.2 mph N/A   Partly Cloudy
3:30 PM 57.2 °F - 42.8 °F 59% 29.89 in 6.2 mi NE 17.3 mph 33.4 mph N/A   Partly Cloudy
4:00 PM 57.2 °F - 44.6 °F 63% 29.89 in 6.2 mi NE 15.0 mph 29.9 mph N/A   Partly Cloudy
4:30 PM 57.2 °F - 44.6 °F 63% 29.89 in 6.2 mi NE 15.0 mph 26.5 mph N/A   Partly Cloudy
5:00 PM 57.2 °F - 44.6 °F 63% 29.89 in 6.2 mi NNE 17.3 mph 28.8 mph N/A   Partly Cloudy
6:00 PM 55.4 °F - 44.6 °F 67% 29.92 in 6.2 mi NE 15.0 mph 31.1 mph N/A   Partly Cloudy
6:30 PM 53.6 °F - 42.8 °F 67% 29.92 in 6.2 mi NE 16.1 mph 27.6 mph N/A   Partly Cloudy
7:00 PM 53.6 °F - 42.8 °F 67% 29.92 in 6.2 mi NE 12.7 mph 27.6 mph N/A   Partly Cloudy
7:30 PM 51.8 °F - 41.0 °F 67% 29.92 in - NE 18.4 mph 31.1 mph N/A   Clear
8:00 PM 47 °F - 47 °F 100% 29.96 in 19 mi NE 12.7 mph - -   Scattered Clouds
8:00 PM 51.8 °F - 41.0 °F 67% 29.95 in - NE 16.1 mph 27.6 mph N/A   Clear
8:30 PM 50.0 °F - 41.0 °F 71% 29.95 in - NE 12.7 mph - N/A   Clear
9:00 PM 50.0 °F - 39.2 °F 66% 29.95 in - NNE 15.0 mph - N/A   Clear
9:30 PM 48.2 °F - 39.2 °F 71% 29.98 in - NNE 13.8 mph 29.9 mph N/A   Clear
10:00 PM 48.2 °F - 39.2 °F 71% 29.98 in - NNE 10.4 mph 21.9 mph N/A   Clear
10:30 PM 48.2 °F - 39.2 °F 71% 29.98 in - NE 10.4 mph - N/A   Clear
11:00 PM 46.4 °F 41.9 °F 39.2 °F 76% 29.98 in - NE 9.2 mph - N/A   Clear
11:30 PM 46.4 °F 42.9 °F 39.2 °F 76% 29.98 in - NE 6.9 mph - N/A   Clear